Content
SEND FEEDBACK

Daily
Averages
Monthly
Summary
United States of America

ANN ARBOR, MICHIGAN


Home > North America > United States > Michigan
Elevation: 759 feet     Latitude: 42 17N     Longitude: 083 43W

WEATHER
 
SELECT A DAY
Number of Records: 208,012;   Date Range: 1/1/95 - 11/22/14
 
SHARE

PRINT THIS DATA

[ ← Previous Day ]
WEATHER ALMANAC - FEBRUARY 12, 2013
[ Next Day → ]
[ °C ]   °F
Weather ElementAverageHighLow
Temperature30.6 °F33.1 °F (1:53 pm)27 °F (11:53 pm)
Dewpoint22.1 °F24.1 °F (4:53 am)19 °F (11:53 pm)
Humidity70.8 %79 % (4:53 am)64 % (1:53 pm)
Barometer30.00 in30.06 in (9:53 am)29.93 in (1:53 am)
Wind Speed11.2 mph18.4 mph (1:53 am)
Wind Gust25.3 mph (1:53 am)
Weather ElementAverage
Visibility9.9 mi
Wind DirectionWNW (276.5 °)

Weather ElementTotal
Precipitation---
Heating Degree Days35 (Base 65)
Averaged from 23 records on February 12, 2013
WEATHER CONDITIONS BREAKOUT
WIND DIRECTION BREAKOUT
WEATHER BY HOUR - FEBRUARY 12, 2013
[ °C ]   °F
Local TimeTemperatureDewpointHumidityBarometerVisibilityWind DirectionWind SpeedGust SpeedPrecipitationEventsConditions
1:53 AM30.9 °F23.0 °F72 %29.93 in10.0 miWest (270°)18.4 mph25.3 mphOvercast
2:53 AM30.9 °F23.0 °F72 %29.96 in10.0 miWest (280°)15.0 mphOvercast
3:53 AM30.9 °F21.9 °F69 %29.97 in10.0 miWNW (290°)11.5 mph25.3 mphOvercast
4:53 AM30.0 °F24.1 °F79 %29.99 in8.0 miWest (260°)12.7 mph0.00 inSnowLight Snow
5:53 AM30.0 °F23.0 °F75 %30.01 in10.0 miWest (270°)12.7 mph0.00 inOvercast
6:53 AM30.0 °F23.0 °F75 %30.02 in10.0 miWNW (290°)16.1 mph24.2 mphOvercast
7:53 AM30.0 °F23.0 °F75 %30.04 in10.0 miWest (270°)12.7 mphOvercast
8:53 AM30.0 °F23.0 °F75 %30.05 in10.0 miWest (280°)12.7 mph17.3 mphOvercast
9:53 AM30.9 °F21.9 °F69 %30.06 in10.0 miWest (270°)10.4 mphOvercast
10:53 AM30.9 °F21.9 °F69 %30.06 in10.0 miWNW (290°)9.2 mphOvercast
11:53 AM30.9 °F23.0 °F72 %30.06 in10.0 miWest (260°)10.4 mphOvercast
12:53 PM32.0 °F23.0 °F69 %30.04 in10.0 miWSW (250°)13.8 mphOvercast
1:53 PM33.1 °F21.9 °F64 %29.97 in10.0 miWest (280°)9.2 mphOvercast
2:53 PM32.0 °F21.9 °F66 %29.97 in10.0 miWest (260°)10.4 mphOvercast
3:53 PM32.0 °F21.9 °F66 %30.00 in10.0 miWest (270°)10.4 mphOvercast
4:53 PM32.0 °F21.9 °F66 %29.99 in10.0 miWest (270°)9.2 mphOvercast
5:53 PM32.0 °F24.1 °F73 %29.99 in10.0 miWest (260°)10.4 mphOvercast
6:53 PM30.9 °F21.9 °F69 %29.99 in10.0 miWest (280°)10.4 mphOvercast
7:53 PM30.0 °F21.0 °F69 %29.99 in10.0 miWNW (300°)6.9 mphOvercast
8:53 PM28.9 °F21.0 °F72 %29.98 in10.0 miWNW (290°)6.9 mphOvercast
9:53 PM28.9 °F21.0 °F72 %29.96 in10.0 miWNW (290°)8.1 mphOvercast
10:53 PM28.9 °F19.9 °F69 %29.95 in10.0 miWNW (300°)10.4 mphOvercast
11:53 PM27.0 °F19.0 °F72 %29.94 in10.0 miWest (280°)9.2 mphOvercast
Hourly data recorded from KARB, located miles away from Ann Arbor, Michigan







STORIES FROM OUR PARTNERS